Fayetteville, NC

3:47 AM EDT on October 24, 2017 (GMT -0400)
Fayetteville Regional-Grannis

Weather History for KFAY - May, 2013

Change the Weather History Date:

Friday, May 31, 2013

  Actual Average Record
Temperature  
Mean Temperature 77 °F 75 °F  
Max Temperature 91 °F 86 °F 99 °F (2011)
Min Temperature 63 °F 64 °F 44 °F (1996)
Degree Days  
Heating Degree Days 0 0  
Month to date heating degree days 36 23  
Since 1 July heating degree days 2762 2732  
Cooling Degree Days 12 10  
Month to date cooling degree days 178 201  
Year to date cooling degree days 249 284  
Growing Degree Days 26 (Base 50)    
Moisture  
Dew Point 64 °F    
Average Humidity 66    
Maximum Humidity 93    
Minimum Humidity 38    
Precipitation  
Precipitation 0.00 in 0.16 in 1.40 in (1916)
Month to date precipitation 1.98 3.24  
Year to date precipitation 13.34 15.67  
Sea Level Pressure  
Sea Level Pressure 30.18 in    
Wind  
Wind Speed 6 mph (South)    
Max Wind Speed 18 mph    
Max Gust Speed 22 mph    
Visibility 9 miles    
Events      
T = Trace of Precipitation, MM = Missing Value Source: NWS Daily Summary

Daily Weather History Graph

Daily Weather History Graph

Search for Another Location

Airport or City:

Trip Planner

Search our weather history database for the weather conditions in past years. The results will help you decide how hot, cold, wet, or windy it might be!

Date:

Astronomy

May. 31, 2013 Rise Set
Actual Time 6:03 AM EDT 8:23 PM EDT
Civil Twilight 5:33 AM EDT 8:52 PM EDT
Nautical Twilight 4:58 AM EDT 9:28 PM EDT
Astronomical Twilight 4:19 AM EDT 10:08 PM EDT
Moon 1:08 AM EDT (5/31) 1:04 PM EDT (5/31)
Length of Visible Light 15h 19m
Length of Day
14h 20m
Waning Gibbous, 51% of the Moon is Illuminated
May 31
Waning Gibbous
May 31
Last Quarter
Jun 8
New
Jun 16
First Quarter
Jun 23
Full

Hourly Weather History & Observations

Time (EDT) Temp. Heat Index Dew Point Humidity Pressure Visibility Wind Dir Wind Speed Gust Speed Precip Events Conditions
12:53 AM 71.1 °F - 66.0 °F 84% 30.21 in 10.0 mi SSW 4.6 mph - N/A   Clear
1:53 AM 69.1 °F - 64.9 °F 87% 30.19 in 10.0 mi SW 4.6 mph - N/A   Clear
2:53 AM 70.0 °F - 66.9 °F 90% 30.19 in 10.0 mi WSW 5.8 mph - N/A   Clear
3:53 AM 69.1 °F - 66.0 °F 90% 30.20 in 10.0 mi WSW 4.6 mph - N/A   Partly Cloudy
4:53 AM 66.0 °F - 64.0 °F 93% 30.19 in 10.0 mi Calm Calm - N/A   Clear
5:47 AM 64.4 °F - 62.6 °F 94% 30.22 in 2.0 mi Calm Calm - N/A   Partly Cloudy
5:53 AM 64.0 °F - 63.0 °F 96% 30.20 in 1.8 mi Calm Calm - N/A   Partly Cloudy
5:56 AM 64.4 °F - 62.6 °F 94% 30.22 in 3.0 mi Calm Calm - N/A   Partly Cloudy
6:07 AM 64.4 °F - 62.6 °F 94% 30.22 in 1.2 mi Calm Calm - N/A   Clear
6:17 AM 64.4 °F - 62.6 °F 94% 30.23 in 8.0 mi Calm Calm - N/A   Clear
6:53 AM 66.0 °F - 64.0 °F 93% 30.21 in 10.0 mi Calm Calm - N/A   Clear
7:53 AM 70.0 °F - 66.9 °F 90% 30.21 in 10.0 mi South 3.5 mph - N/A   Clear
8:53 AM 75.9 °F - 68.0 °F 76% 30.22 in 10.0 mi South 4.6 mph - N/A   Clear
9:53 AM 79.0 °F - 66.0 °F 64% 30.22 in 10.0 mi WSW 4.6 mph - N/A   Partly Cloudy
10:53 AM 80.1 °F 81.5 °F 63.0 °F 56% 30.22 in 10.0 mi SW 5.8 mph - N/A   Scattered Clouds
11:53 AM 84.0 °F 85.4 °F 64.0 °F 51% 30.22 in 10.0 mi South 9.2 mph - N/A   Partly Cloudy
12:53 PM 84.0 °F 84.4 °F 61.0 °F 46% 30.20 in 10.0 mi SSW 8.1 mph - N/A   Mostly Cloudy
1:53 PM 86.0 °F 86.1 °F 61.0 °F 43% 30.17 in 10.0 mi Calm Calm - N/A   Partly Cloudy
2:53 PM 88.0 °F 87.6 °F 60.1 °F 39% 30.15 in 10.0 mi Calm Calm - N/A   Scattered Clouds
3:53 PM 89.1 °F 88.8 °F 60.1 °F 38% 30.13 in 10.0 mi South 6.9 mph - N/A   Scattered Clouds
4:53 PM 89.1 °F 88.8 °F 60.1 °F 38% 30.11 in 10.0 mi SE 5.8 mph - N/A   Partly Cloudy
5:53 PM 89.1 °F 89.3 °F 62.1 °F 40% 30.10 in 10.0 mi South 9.2 mph - N/A   Clear
6:53 PM 86.0 °F 88.8 °F 66.9 °F 53% 30.10 in 10.0 mi SSE 16.1 mph 21.9 mph N/A   Partly Cloudy
7:53 PM 82.9 °F 85.4 °F 66.9 °F 58% 30.10 in 10.0 mi South 9.2 mph - N/A   Clear
8:53 PM 80.1 °F 82.7 °F 68.0 °F 67% 30.11 in 10.0 mi South 9.2 mph - N/A   Clear
9:53 PM 77.0 °F - 66.9 °F 71% 30.13 in 10.0 mi South 11.5 mph - N/A   Clear
10:53 PM 75.0 °F - 68.0 °F 79% 30.14 in 10.0 mi South 9.2 mph - N/A   Clear
11:53 PM 73.9 °F - 68.0 °F 82% 30.14 in 10.0 mi SSW 8.1 mph - N/A   Clear